Simultaneous Nadir Overpasses (SNOs) Predictions

Prediction of SNOs between LANDSAT-8 and METOP-A Satellite Orbit:

Table of predicted SNOs for the next 14.0 days since TLE Epoch: 9/5/2014
Index Date (LANDSAT-8) Time (LANDSAT-8) Lat,Lon (LANDSAT-8) SZA (LANDSAT-8 ) Date (METOP-A) Time (METOP-A) Lat,Lon (METOP-A) SZA (METOP-A ) Distance(km) Time Diff (sec)
1 09/06/2014 15:39:48 81.10, -15.34 76.89 09/06/2014 15:39:16 81.10, -15.37 76.87 0.63 32
2 09/06/2014 16:29:14 -81.12, 152.62 103.06 09/06/2014 16:29:55 -81.12, 152.65 103.04 0.48 41
3 09/09/2014 11:14:04 81.10, 51.04 77.96 09/09/2014 11:13:39 81.10, 51.13 77.96 1.47 25
4 09/09/2014 12:03:30 -81.12,-140.98 101.98 09/09/2014 12:04:18 -81.13,-140.85 101.95 2.13 48
5 09/12/2014 06:48:19 81.09, 117.33 79.02 09/12/2014 06:48:02 81.09, 117.22 79.01 1.89 17
6
